TimeEDT,TemperatureF,Dew PointF,Humidity,Sea Level PressureIn,VisibilityMPH,Wind Direction,Wind SpeedMPH,Gust SpeedMPH,PrecipitationIn,Events,Conditions,WindDirDegrees,DateUTC
4:55 AM,64.0,60.4,88,30.17,10.0,Calm,Calm,-,N/A,,Clear,0,2012-10-05 08:55:00
5:55 AM,62.8,59.5,89,30.17,10.0,Calm,Calm,-,N/A,,Clear,0,2012-10-05 09:55:00
6:55 AM,62.4,59.2,89,30.17,10.0,West,3.5,-,N/A,,Clear,260,2012-10-05 10:55:00
7:28 AM,62.6,59.0,88,30.17,10.0,WNW,3.5,-,N/A,,Clear,290,2012-10-05 11:28:00
7:55 AM,62.2,59.0,89,30.18,10.0,West,3.5,-,N/A,,Clear,280,2012-10-05 11:55:00
8:55 AM,63.5,59.9,88,30.19,10.0,Calm,Calm,-,N/A,,Clear,0,2012-10-05 12:55:00
9:55 AM,66.7,61.0,82,30.18,10.0,Calm,Calm,-,N/A,,Clear,0,2012-10-05 13:55:00
10:55 AM,69.6,61.2,74,30.18,10.0,North,3.5,-,N/A,,Partly Cloudy,350,2012-10-05 14:55:00
11:55 AM,72.3,59.9,65,30.16,10.0,NE,3.5,-,N/A,,Clear,50,2012-10-05 15:55:00
12:55 PM,74.3,60.8,63,30.15,10.0,Variable,3.5,-,N/A,,Partly Cloudy,0,2012-10-05 16:55:00
1:55 PM,76.5,58.6,54,30.12,10.0,Variable,3.5,-,N/A,,Scattered Clouds,0,2012-10-05 17:55:00
2:55 PM,78.4,55.6,45,30.10,10.0,Calm,Calm,-,N/A,,Clear,0,2012-10-05 18:55:00
3:55 PM,79.3,55.6,44,30.08,10.0,Calm,Calm,-,N/A,,Clear,0,2012-10-05 19:55:00
4:55 PM,78.6,54.0,42,30.05,10.0,Calm,Calm,-,N/A,,Clear,0,2012-10-05 20:55:00
5:55 PM,78.3,56.5,47,30.04,10.0,SW,5.8,-,N/A,,Clear,220,2012-10-05 21:55:00
6:55 PM,75.2,58.5,56,30.04,10.0,SSW,4.6,-,N/A,,Clear,200,2012-10-05 22:55:00
7:55 PM,68.7,60.6,75,30.05,10.0,West,3.5,-,N/A,,Clear,270,2012-10-05 23:55:00
8:55 PM,63.0,61.3,94,30.05,10.0,Calm,Calm,-,N/A,,Clear,0,2012-10-06 00:55:00
9:55 PM,63.0,61.3,94,30.05,10.0,Calm,Calm,-,N/A,,Clear,0,2012-10-06 01:55:00
10:55 PM,60.8,60.1,97,30.05,10.0,Calm,Calm,-,N/A,,Clear,0,2012-10-06 02:55:00
11:55 PM,59.4,58.6,97,30.03,10.0,Calm,Calm,-,N/A,,Clear,0,2012-10-06 03:55:00